[[{"header":{"parameterUnit":"m.s-1","parameterCategory":2,"la1":30.2992,"la2":30.254,"lo1":-89.0895,"lo2":-89.0443,"dy":0.0025,"dx":0.0025,"nx":19,"ny":19,"refTime":"2026-03-14T03:00:00:Z","depth":"0","parameterNumber":2,"parameterNumberName":"U-component_of_CURRENTS"},"data":[0,0,0,-0.1712,-0.1713,-0.1749,-0.1749,-0.1785,-0.1785,0,0,0,0,0,0,0,0,0,0,0,-0.1693,-0.1693,-0.1712,-0.1713,-0.1749,-0.1749,-0.1785,-0.1785,0,0,0,0,0,0,0,0,0,0,0,-0.1693,-0.1693,-0.1693,-0.1713,-0.1749,-0.1749,-0.1785,-0.1759,0,0,0,0,0,0,0,0,0,0,-0.1725,-0.1702,-0.1693,-0.1693,-0.1713,-0.1749,-0.1749,-0.1758,-0.176,-0.1767,0,-0.1772,0,-0.1784,-0.1788,-0.1788,0,0,0,-0.1708,-0.1699,-0.172,-0.1693,-0.1714,-0.1749,-0.1731,-0.1759,-0.1762,-0.177,-0.1772,-0.1774,-0.1785,-0.1788,-0.1788,-0.1829,-0.1829,0,0,-0.1706,-0.169,-0.1717,-0.1722,-0.1722,-0.173,-0.1732,-0.1761,-0.1758,-0.1772,-0.1775,-0.1785,-0.1788,-0.1788,-0.1829,-0.1829,0,0,0,-0.1704,-0.1688,-0.1708,-0.172,-0.173,-0.1731,-0.1734,-0.1756,-0.1765,-0.1775,-0.1786,-0.1788,-0.1789,-0.1828,-0.1829,-0.1829,0,0,0,-0.1702,-0.1687,-0.1707,-0.1696,-0.1729,-0.1743,-0.1728,-0.1763,-0.1767,-0.1786,-0.1788,-0.1789,-0.1828,-0.1828,-0.1829,-0.1824,0,0,0,-0.1691,-0.1686,-0.1692,-0.1695,-0.1715,-0.1743,-0.1754,-0.1764,-0.1774,-0.1788,-0.1789,-0.1828,-0.1828,-0.1829,-0.1824,-0.1816,0,0,0,-0.167,-0.1682,-0.1692,-0.1712,-0.1714,-0.1758,-0.1754,-0.1779,-0.1793,-0.1789,-0.1828,-0.1829,-0.1828,-0.1824,-0.1816,-0.1701,-0.1692,0,0,-0.1678,-0.1682,-0.1698,-0.1709,-0.1747,-0.1752,-0.1785,-0.1797,-0.1799,-0.1817,-0.1818,-0.1829,-0.1824,-0.1816,-0.1723,-0.1713,0,0,0,-0.1697,-0.1702,-0.1719,-0.174,-0.1774,-0.1791,-0.1809,-0.181,-0.1819,-0.181,-0.1837,-0.1833,-0.1828,-0.1759,-0.1752,-0.1688,-0.183,-0.183,-0.183,-0.1664,-0.1698,-0.1722,-0.1761,-0.1787,-0.1819,-0.1826,-0.1829,-0.1838,-0.1838,-0.184,-0.1842,-0.1769,-0.1762,-0.1698,-0.1849,-0.1849,-0.1849,-0.1849,-0.1664,-0.1671,-0.1715,-0.1748,-0.1781,-0.1807,-0.1837,-0.1838,-0.1842,-0.1846,-0.1841,-0.1771,-0.1753,-0.1688,-0.1849,-0.1849,-0.1849,-0.1849,-0.1849,-0.1626,-0.1633,-0.1664,-0.1707,-0.1743,-0.179,-0.1804,-0.183,-0.1836,-0.1837,-0.1759,-0.1757,-0.1693,-0.1837,-0.1837,-0.1837,-0.1837,-0.1837,-0.1837,-0.1561,-0.1597,-0.1606,-0.1663,-0.1683,-0.1725,-0.1781,-0.1787,-0.1766,-0.1746,-0.1745,-0.1677,-0.1838,-0.1831,-0.1836,-0.1836,-0.1836,-0.1836,-0.1836,-0.149,-0.1513,-0.1524,-0.1543,-0.1598,-0.1586,-0.1677,-0.1651,-0.1669,-0.1627,-0.1544,-0.1691,-0.1676,-0.1681,-0.167,-0.1633,-0.1633,-0.1633,-0.1633,-0.1423,-0.1444,-0.1431,-0.1443,-0.1471,-0.1512,-0.1438,-0.1437,-0.1417,-0.1374,-0.1427,-0.1395,-0.1406,-0.1376,-0.1387,-0.1371,-0.1259,-0.1259,-0.1258,-0.1357,-0.1374,-0.1331,-0.1367,-0.1397,-0.1398,-0.127,-0.1187,-0.1193,-0.1243,-0.1363,-0.1379,-0.1336,-0.1359,-0.1316,-0.1337,-0.1313,0,0]},{"header":{"parameterUnit":"m.s-1","parameterCategory":2,"la1":30.2992,"la2":30.254,"lo1":-89.0895,"lo2":-89.0443,"dy":0.0025,"dx":0.0025,"nx":19,"ny":19,"refTime":"2026-03-14T03:00:00:Z","depth":"0","parameterNumber":3,"parameterNumberName":"V-component_of_CURRENTS"},"data":[0,0,0,-0.0184,-0.0184,-0.0139,-0.0139,-0.005,-0.0049,0,0,0,0,0,0,0,0,0,0,0,-0.0199,-0.0199,-0.0185,-0.0184,-0.0139,-0.0139,-0.005,-0.0049,0,0,0,0,0,0,0,0,0,0,0,-0.0199,-0.0199,-0.0199,-0.0184,-0.0139,-0.0139,-0.005,-0.0089,0,0,0,0,0,0,0,0,0,0,-0.0135,-0.0162,-0.0199,-0.0199,-0.0184,-0.0139,-0.0139,-0.0091,-0.0087,-0.0064,0,-0.0064,0,-0.0058,-0.0043,-0.0043,0,0,0,-0.0173,-0.0166,-0.0151,-0.0199,-0.0183,-0.0139,-0.0156,-0.0089,-0.0084,-0.0058,-0.0063,-0.006,-0.0057,-0.0043,-0.0042,0.0004,0.0004,0,0,-0.0176,-0.0189,-0.0155,-0.0149,-0.018,-0.0158,-0.0155,-0.0086,-0.0084,-0.0063,-0.0058,-0.0055,-0.0042,-0.0041,0.0004,0.0004,0,0,0,-0.019,-0.0191,-0.0179,-0.0152,-0.0149,-0.0157,-0.0154,-0.0087,-0.0083,-0.0057,-0.0054,-0.0042,-0.004,0.0004,0.0004,-0.0058,0,0,0,-0.0191,-0.02,-0.0181,-0.0188,-0.015,-0.0123,-0.0157,-0.0088,-0.008,-0.0055,-0.0041,-0.004,0.0004,0.0004,-0.0056,-0.0087,0,0,0,-0.02,-0.0201,-0.0198,-0.0189,-0.0174,-0.0124,-0.0116,-0.0086,-0.0079,-0.0043,-0.0039,0.0004,0.0004,-0.0054,-0.0083,-0.0054,0,0,0,-0.0211,-0.0227,-0.0199,-0.0216,-0.0175,-0.0166,-0.0116,-0.0099,-0.0075,-0.0041,0.0004,0.0004,-0.0054,-0.0081,-0.0053,0.0009,0.0009,0,0,-0.0241,-0.0231,-0.0242,-0.0217,-0.0231,-0.0171,-0.0172,-0.0116,-0.0069,-0.0014,-0.0013,-0.0057,-0.0083,-0.0054,-0.001,-0.001,0,0,0,-0.0259,-0.0269,-0.0268,-0.0269,-0.0245,-0.0221,-0.0166,-0.0133,-0.0084,-0.0057,-0.0046,-0.006,-0.004,0.0001,0.0,0.0126,0.0002,0.0002,0.0002,-0.0314,-0.0306,-0.0331,-0.0318,-0.0305,-0.0252,-0.0223,-0.0164,-0.0118,-0.0105,-0.0103,-0.0115,-0.0074,-0.0073,0.0055,-0.0091,-0.0091,-0.0092,-0.0092,-0.0375,-0.0395,-0.038,-0.0399,-0.0363,-0.0349,-0.0273,-0.0232,-0.017,-0.0145,-0.0121,-0.0058,-0.0076,0.006,-0.0096,-0.0095,-0.0094,-0.0094,-0.0094,-0.042,-0.0429,-0.0436,-0.0459,-0.0453,-0.0406,-0.0372,-0.0311,-0.0226,-0.0213,-0.0112,-0.011,0.0007,-0.0183,-0.0183,-0.0183,-0.0184,-0.0184,-0.0184,-0.0463,-0.047,-0.0507,-0.0519,-0.0528,-0.0512,-0.043,-0.0368,-0.0244,-0.0169,-0.0167,0.0024,-0.0142,-0.0141,-0.0184,-0.0184,-0.0184,-0.0184,-0.0184,-0.052,-0.0519,-0.0577,-0.0597,-0.0616,-0.0589,-0.0511,-0.0334,-0.025,-0.0164,0.0062,-0.012,-0.0082,-0.008,-0.0077,-0.0101,-0.0101,-0.0101,-0.0101,-0.0554,-0.0561,-0.0633,-0.0673,-0.0691,-0.0627,-0.0493,-0.0302,-0.002,0.0131,0.0165,0.0205,0.0196,0.0253,0.0247,0.0258,0.032,0.0321,0.0321,-0.0591,-0.061,-0.0662,-0.0701,-0.0723,-0.0645,-0.0483,-0.0222,0.0179,0.0349,0.0326,0.0308,0.0375,0.0351,0.0446,0.0428,0.0449,0,0]}],[{"header":{"parameterUnit":"m.s-1","parameterCategory":2,"la1":30.2992,"la2":30.254,"lo1":-89.0895,"lo2":-89.0443,"dy":0.0025,"dx":0.0025,"nx":19,"ny":19,"refTime":"2026-03-14T03:00:00:Z","depth":"2","parameterNumber":2,"parameterNumberName":"U-component_of_CURRENTS"},"data":[0,0,0,-0.1451,-0.1451,-0.1485,-0.1485,-0.1515,-0.1516,0,0,0,0,0,0,0,0,0,0,0,-0.1435,-0.1435,-0.145,-0.1451,-0.1485,-0.1485,-0.1515,-0.1516,0,0,0,0,0,0,0,0,0,0,0,-0.1434,-0.1435,-0.1435,-0.1452,-0.1485,-0.1485,-0.1515,-0.1493,0,0,0,0,0,0,0,0,0,0,-0.1461,-0.1444,-0.1435,-0.1435,-0.1452,-0.1485,-0.1485,-0.1492,-0.1494,-0.1497,0,-0.1502,0,-0.1512,-0.1518,-0.1518,0,0,0,-0.1449,-0.1442,-0.1457,-0.1435,-0.1452,-0.1485,-0.1469,-0.1493,-0.1496,-0.15,-0.1502,-0.1504,-0.1513,-0.1518,-0.1518,-0.1556,-0.1556,0,0,-0.1447,-0.1435,-0.1456,-0.1459,-0.146,-0.1468,-0.147,-0.1495,-0.1493,-0.1502,-0.1505,-0.1513,-0.1518,-0.1518,-0.1556,-0.1556,0,0,0,-0.1444,-0.1433,-0.1448,-0.1458,-0.1466,-0.1469,-0.1472,-0.1492,-0.1499,-0.1505,-0.1514,-0.1518,-0.1519,-0.1555,-0.1556,-0.1567,0,0,0,-0.1442,-0.1432,-0.1448,-0.144,-0.1466,-0.148,-0.1468,-0.1497,-0.15,-0.1514,-0.1518,-0.1519,-0.1555,-0.1556,-0.1566,-0.1563,0,0,0,-0.1433,-0.1431,-0.1436,-0.1439,-0.1456,-0.148,-0.1488,-0.1498,-0.1506,-0.1518,-0.1519,-0.1555,-0.1556,-0.1565,-0.1562,-0.1554,0,0,0,-0.1418,-0.1427,-0.1435,-0.1452,-0.1456,-0.1493,-0.1488,-0.1513,-0.1525,-0.1518,-0.1555,-0.1556,-0.1565,-0.1562,-0.1553,-0.1438,-0.143,0,0,-0.1423,-0.1427,-0.144,-0.1449,-0.1482,-0.1489,-0.1521,-0.1532,-0.1532,-0.1545,-0.1546,-0.1566,-0.1562,-0.1554,-0.1465,-0.1456,0,0,0,-0.1438,-0.1443,-0.1457,-0.1476,-0.1506,-0.1526,-0.1543,-0.1547,-0.1559,-0.1542,-0.1573,-0.157,-0.1564,-0.1494,-0.1487,-0.1558,-0.1558,-0.1558,-0.1558,-0.1412,-0.144,-0.1461,-0.1495,-0.152,-0.1554,-0.1566,-0.1573,-0.1578,-0.1584,-0.1584,-0.1591,-0.1518,-0.1511,-0.1594,-0.1594,-0.1594,-0.1594,-0.1594,-0.141,-0.1416,-0.1457,-0.1486,-0.152,-0.1548,-0.1583,-0.1589,-0.1597,-0.16,-0.1593,-0.1515,-0.1504,-0.1595,-0.1595,-0.1595,-0.1595,-0.1595,-0.1594,-0.1378,-0.1384,-0.1412,-0.1452,-0.1491,-0.1538,-0.1557,-0.1589,-0.1598,-0.1602,-0.1515,-0.1513,-0.1584,-0.1598,-0.1598,-0.1598,-0.1598,-0.1598,-0.1598,-0.1323,-0.1355,-0.1363,-0.1417,-0.1437,-0.148,-0.154,-0.1547,-0.1528,-0.1511,-0.1509,-0.1592,-0.1592,-0.1585,-0.1598,-0.1598,-0.1598,-0.1598,-0.1598,-0.126,-0.1282,-0.129,-0.1308,-0.1357,-0.1342,-0.1435,-0.141,-0.1429,-0.1387,-0.145,-0.1454,-0.1434,-0.1438,-0.1426,-0.1398,-0.1398,-0.1398,-0.1398,-0.1202,-0.1221,-0.1206,-0.1213,-0.1235,-0.1268,-0.119,-0.1181,-0.1222,-0.122,-0.1228,-0.12,-0.1212,-0.1179,-0.1189,-0.1172,-0.1077,-0.1077,-0.1077,-0.1144,-0.1157,-0.1116,-0.1144,-0.1163,-0.1153,-0.102,-0.0914,-0.0943,-0.1067,-0.1204,-0.137,-0.135,-0.136,-0.1327,-0.1337,-0.1317,0,0]},{"header":{"parameterUnit":"m.s-1","parameterCategory":2,"la1":30.2992,"la2":30.254,"lo1":-89.0895,"lo2":-89.0443,"dy":0.0025,"dx":0.0025,"nx":19,"ny":19,"refTime":"2026-03-14T03:00:00:Z","depth":"2","parameterNumber":3,"parameterNumberName":"V-component_of_CURRENTS"},"data":[0,0,0,-0.0266,-0.0265,-0.023,-0.0229,-0.0156,-0.0155,0,0,0,0,0,0,0,0,0,0,0,-0.0277,-0.0277,-0.0266,-0.0265,-0.023,-0.0229,-0.0156,-0.0155,0,0,0,0,0,0,0,0,0,0,0,-0.0277,-0.0277,-0.0277,-0.0265,-0.023,-0.0229,-0.0156,-0.0188,0,0,0,0,0,0,0,0,0,0,-0.0225,-0.0246,-0.0277,-0.0277,-0.0265,-0.023,-0.0229,-0.0189,-0.0186,-0.0167,0,-0.0167,0,-0.0163,-0.015,-0.015,0,0,0,-0.0256,-0.0249,-0.0238,-0.0277,-0.0265,-0.023,-0.0243,-0.0187,-0.0183,-0.0162,-0.0166,-0.0164,-0.0162,-0.015,-0.0149,-0.0106,-0.0107,0,0,-0.0258,-0.0269,-0.0241,-0.0236,-0.0263,-0.0244,-0.0242,-0.0185,-0.0184,-0.0166,-0.0162,-0.0161,-0.0149,-0.0149,-0.0106,-0.0106,0,0,0,-0.027,-0.027,-0.0261,-0.0239,-0.0236,-0.0244,-0.0241,-0.0186,-0.0183,-0.0161,-0.016,-0.0149,-0.0148,-0.0106,-0.0106,-0.0158,0,0,0,-0.0271,-0.0278,-0.0262,-0.0268,-0.0238,-0.0216,-0.0244,-0.0187,-0.018,-0.016,-0.0149,-0.0147,-0.0106,-0.0106,-0.0157,-0.0183,0,0,0,-0.0277,-0.0279,-0.0277,-0.0269,-0.0258,-0.0217,-0.021,-0.0185,-0.018,-0.015,-0.0147,-0.0106,-0.0106,-0.0155,-0.018,-0.0162,0,0,0,-0.0287,-0.0301,-0.0277,-0.0293,-0.0258,-0.0252,-0.021,-0.0197,-0.0177,-0.0149,-0.0106,-0.0106,-0.0155,-0.0179,-0.0161,-0.0126,-0.0128,0,0,-0.0313,-0.0304,-0.0315,-0.0293,-0.0306,-0.0255,-0.0256,-0.021,-0.0169,-0.0121,-0.012,-0.0157,-0.018,-0.0162,-0.0134,-0.0136,0,0,0,-0.0329,-0.0338,-0.0337,-0.0338,-0.0319,-0.0298,-0.0252,-0.0222,-0.0178,-0.0159,-0.0145,-0.0158,-0.0144,-0.0121,-0.0122,-0.0107,-0.0107,-0.0107,-0.0107,-0.0376,-0.037,-0.0391,-0.038,-0.037,-0.0324,-0.0298,-0.0245,-0.0206,-0.0192,-0.0191,-0.0202,-0.0179,-0.0179,-0.0178,-0.0178,-0.0179,-0.0179,-0.0179,-0.0429,-0.0447,-0.0433,-0.0451,-0.042,-0.0408,-0.0339,-0.0302,-0.0246,-0.0222,-0.0205,-0.0167,-0.0184,-0.0183,-0.0182,-0.0181,-0.0181,-0.0181,-0.0181,-0.0468,-0.0477,-0.0483,-0.0504,-0.05,-0.0459,-0.0435,-0.0373,-0.0295,-0.0283,-0.0216,-0.0214,-0.0226,-0.0263,-0.0263,-0.0263,-0.0263,-0.0263,-0.0263,-0.0507,-0.0513,-0.0547,-0.0559,-0.057,-0.0559,-0.0489,-0.0438,-0.0333,-0.0265,-0.0264,-0.023,-0.0227,-0.0229,-0.0264,-0.0264,-0.0264,-0.0264,-0.0263,-0.0559,-0.0558,-0.0612,-0.0633,-0.0657,-0.0643,-0.0576,-0.0437,-0.0365,-0.0296,-0.0235,-0.0236,-0.0207,-0.0205,-0.0205,-0.0232,-0.0232,-0.0232,-0.0232,-0.0591,-0.0597,-0.0666,-0.0709,-0.0733,-0.0685,-0.059,-0.0429,-0.028,-0.0205,-0.0206,-0.0191,-0.0193,-0.0162,-0.0161,-0.016,-0.0175,-0.0175,-0.0175,-0.0626,-0.0644,-0.0697,-0.0737,-0.0767,-0.0713,-0.0593,-0.0369,-0.0172,-0.0174,-0.0213,-0.0225,-0.0206,-0.0207,-0.016,-0.0159,-0.0156,0,0]}],[{"header":{"parameterUnit":"m.s-1","parameterCategory":2,"la1":30.2992,"la2":30.254,"lo1":-89.0895,"lo2":-89.0443,"dy":0.0025,"dx":0.0025,"nx":19,"ny":19,"refTime":"2026-03-14T03:00:00:Z","depth":"4","parameterNumber":2,"parameterNumberName":"U-component_of_CURRENTS"},"data":[0,0,0,-0.1065,-0.1067,-0.1147,-0.1147,-0.1202,-0.1202,0,0,0,0,0,0,0,0,0,0,0,-0.1041,-0.1042,-0.1065,-0.1067,-0.1147,-0.1147,-0.1202,-0.1202,0,0,0,0,0,0,0,0,0,0,0,-0.1041,-0.1041,-0.1042,-0.1067,-0.1147,-0.1147,-0.1202,-0.1154,0,0,0,0,0,0,0,0,0,0,-0.1083,-0.1068,-0.1041,-0.1042,-0.1068,-0.1146,-0.1147,-0.1152,-0.1157,-0.1152,0,-0.1169,0,-0.1184,-0.1205,-0.1205,0,0,0,-0.1069,-0.1065,-0.1083,-0.1042,-0.1069,-0.1146,-0.1111,-0.1155,-0.1161,-0.1158,-0.117,-0.1173,-0.1185,-0.1205,-0.1205,-0.1259,-0.1259,0,0,-0.1065,-0.1057,-0.108,-0.1087,-0.1095,-0.1109,-0.1114,-0.1159,-0.1167,-0.1171,-0.1174,-0.1186,-0.1205,-0.1206,-0.1258,-0.1259,0,0,0,-0.1051,-0.1054,-0.1072,-0.1084,-0.1101,-0.1111,-0.1117,-0.1166,-0.1171,-0.1175,-0.1187,-0.1206,-0.1206,-0.1258,-0.1258,-0.1279,0,0,0,-0.1048,-0.1046,-0.107,-0.1067,-0.11,-0.1141,-0.1122,-0.1168,-0.1174,-0.1186,-0.1206,-0.1206,-0.1258,-0.1258,-0.1278,-0.1277,0,0,0,-0.1036,-0.1044,-0.1055,-0.1066,-0.1099,-0.1141,-0.115,-0.117,-0.1181,-0.1205,-0.1206,-0.1257,-0.1258,-0.1277,-0.1275,-0.1271,0,0,0,-0.1023,-0.1039,-0.1055,-0.1081,-0.1098,-0.1148,-0.115,-0.1193,-0.1217,-0.1206,-0.1258,-0.1258,-0.1276,-0.1274,-0.127,-0.1104,0,0,0,-0.1031,-0.104,-0.1055,-0.1071,-0.1113,-0.1137,-0.1184,-0.1217,-0.1224,-0.1239,-0.1241,-0.1278,-0.1275,-0.1271,-0.115,0,0,0,0,-0.105,-0.106,-0.1077,-0.1109,-0.1146,-0.1185,-0.1221,-0.1236,-0.1269,-0.1241,-0.1288,-0.1285,-0.1281,-0.1183,-0.1262,-0.1262,-0.1262,-0.1262,-0.1262,-0.1037,-0.1064,-0.1093,-0.1131,-0.1168,-0.1224,-0.1253,-0.1279,-0.1287,-0.1308,-0.1309,-0.1329,-0.1228,-0.1323,-0.1323,-0.1323,-0.1323,-0.1323,-0.1323,-0.1037,-0.1046,-0.1098,-0.1136,-0.1187,-0.1233,-0.1285,-0.1304,-0.1333,-0.1336,-0.1332,-0.1222,-0.1325,-0.1325,-0.1325,-0.1324,-0.1324,-0.1324,-0.1324,-0.1009,-0.1016,-0.1058,-0.1116,-0.1177,-0.1239,-0.1268,-0.1319,-0.1342,-0.1352,-0.1238,-0.1336,-0.1325,-0.1353,-0.1353,-0.1353,-0.1353,-0.1353,-0.1353,-0.0953,-0.0994,-0.1021,-0.1093,-0.1129,-0.1185,-0.1263,-0.1269,-0.1311,-0.1235,-0.1357,-0.1339,-0.1338,-0.1326,-0.1353,-0.1353,-0.1353,-0.1353,-0.1353,-0.0893,-0.0927,-0.0953,-0.0988,-0.1057,-0.1083,-0.1184,-0.1161,-0.1154,-0.1109,-0.1165,-0.1175,-0.1145,-0.1149,-0.113,-0.1099,-0.1097,-0.1095,0,-0.0842,-0.0864,-0.0881,-0.0904,-0.0921,-0.1006,-0.0959,-0.0989,-0.1017,-0.0983,-0.1152,-0.1216,-0.1221,-0.1191,-0.1191,-0.1168,0,0,0,-0.0795,-0.0811,-0.0795,-0.0835,-0.0845,-0.086,-0.0936,-0.0897,-0.1028,-0.0963,-0.1043,-0.1056,-0.124,-0.1353,-0.133,-0.1329,-0.1309,0,0]},{"header":{"parameterUnit":"m.s-1","parameterCategory":2,"la1":30.2992,"la2":30.254,"lo1":-89.0895,"lo2":-89.0443,"dy":0.0025,"dx":0.0025,"nx":19,"ny":19,"refTime":"2026-03-14T03:00:00:Z","depth":"4","parameterNumber":3,"parameterNumberName":"V-component_of_CURRENTS"},"data":[0,0,0,-0.0219,-0.0219,-0.0205,-0.0205,-0.0155,-0.0154,0,0,0,0,0,0,0,0,0,0,0,-0.0224,-0.0224,-0.0219,-0.0219,-0.0205,-0.0205,-0.0155,-0.0154,0,0,0,0,0,0,0,0,0,0,0,-0.0224,-0.0224,-0.0224,-0.0219,-0.0205,-0.0205,-0.0155,-0.0172,0,0,0,0,0,0,0,0,0,0,-0.0189,-0.0204,-0.0224,-0.0224,-0.0219,-0.0205,-0.0205,-0.0173,-0.0171,-0.0154,0,-0.0158,0,-0.0158,-0.0151,-0.0151,0,0,0,-0.0211,-0.0206,-0.02,-0.0224,-0.0219,-0.0205,-0.0209,-0.0172,-0.0169,-0.0151,-0.0158,-0.0156,-0.0157,-0.0151,-0.015,-0.0114,-0.0114,0,0,-0.0212,-0.022,-0.0202,-0.0198,-0.0223,-0.021,-0.0209,-0.0171,-0.0171,-0.0157,-0.0155,-0.0156,-0.015,-0.015,-0.0114,-0.0114,0,0,0,-0.022,-0.0221,-0.0216,-0.02,-0.0202,-0.021,-0.0209,-0.0173,-0.0171,-0.0154,-0.0156,-0.015,-0.0149,-0.0114,-0.0114,-0.0156,0,0,0,-0.022,-0.0226,-0.0217,-0.0221,-0.0203,-0.0193,-0.0212,-0.0174,-0.017,-0.0156,-0.015,-0.0149,-0.0114,-0.0114,-0.0155,-0.0178,0,0,0,-0.0223,-0.0226,-0.0226,-0.0222,-0.0219,-0.0194,-0.019,-0.0173,-0.0171,-0.0151,-0.0149,-0.0114,-0.0114,-0.0154,-0.0176,-0.0167,0,0,0,-0.0228,-0.0241,-0.0227,-0.0242,-0.0219,-0.0219,-0.019,-0.0185,-0.0172,-0.015,-0.0114,-0.0114,-0.0154,-0.0175,-0.0167,-0.0168,0,0,0,-0.0248,-0.0244,-0.0253,-0.024,-0.0254,-0.022,-0.0223,-0.0194,-0.0163,-0.0123,-0.0123,-0.0156,-0.0176,-0.0167,-0.0165,0,0,0,0,-0.0262,-0.027,-0.0271,-0.0277,-0.0266,-0.0256,-0.0225,-0.0202,-0.0168,-0.0156,-0.0143,-0.0154,-0.0147,-0.0145,-0.0114,-0.0114,-0.0114,-0.0114,-0.0114,-0.0297,-0.0294,-0.0314,-0.0309,-0.0305,-0.0277,-0.0259,-0.0219,-0.0189,-0.0177,-0.0179,-0.019,-0.0188,-0.0165,-0.0165,-0.0165,-0.0165,-0.0165,-0.0166,-0.0335,-0.0349,-0.0345,-0.0364,-0.0347,-0.0343,-0.0291,-0.0264,-0.0221,-0.02,-0.0191,-0.0178,-0.0169,-0.0169,-0.0168,-0.0168,-0.0167,-0.0167,-0.0167,-0.036,-0.0367,-0.038,-0.0405,-0.0413,-0.0388,-0.0374,-0.0326,-0.0264,-0.0255,-0.0226,-0.0208,-0.0214,-0.0243,-0.0243,-0.0243,-0.0243,-0.0244,-0.0244,-0.0381,-0.0393,-0.0428,-0.0449,-0.0468,-0.0469,-0.0423,-0.0385,-0.032,-0.0272,-0.0263,-0.0215,-0.0213,-0.0217,-0.0245,-0.0244,-0.0244,-0.0244,-0.0244,-0.0412,-0.042,-0.047,-0.0499,-0.0537,-0.0529,-0.0495,-0.0401,-0.0359,-0.0303,-0.0266,-0.0264,-0.0244,-0.0241,-0.0245,-0.0282,-0.0283,-0.0283,0,-0.0431,-0.0439,-0.0508,-0.0554,-0.058,-0.0562,-0.0505,-0.0447,-0.0355,-0.035,-0.036,-0.0323,-0.0319,-0.0302,-0.0299,-0.0307,0,0,0,-0.0453,-0.0471,-0.0521,-0.0567,-0.0597,-0.0527,-0.0486,-0.0448,-0.0372,-0.0319,-0.0286,-0.0285,-0.0292,-0.0248,-0.0213,-0.021,-0.0215,0,0]}]]